TimeEST,TemperatureF,Dew PointF,Humidity,Sea Level PressureIn,VisibilityMPH,Wind Direction,Wind SpeedMPH,Gust SpeedMPH,PrecipitationIn,Events,Conditions,WindDirDegrees,DateUTC
12:53 AM,15.1,7.0,70,30.21,10.0,WNW,15.0,23.0,N/A,,Clear,290,2014-02-07 05:53:00
1:53 AM,15.1,7.0,70,30.20,10.0,WNW,13.8,-,N/A,,Clear,290,2014-02-07 06:53:00
2:53 AM,14.0,7.0,74,30.20,10.0,WNW,11.5,-,N/A,,Clear,290,2014-02-07 07:53:00
3:53 AM,12.9,7.0,77,30.21,10.0,WNW,12.7,-,N/A,,Scattered Clouds,290,2014-02-07 08:53:00
4:00 AM,12.9,7.0,77,30.11,10.0,WNW,11.5,-,N/A,,Mostly Cloudy,290,2014-02-07 09:00:00
4:44 AM,12.9,7.0,77,30.10,10.0,WNW,13.8,-,N/A,,Scattered Clouds,290,2014-02-07 09:44:00
4:53 AM,12.9,7.0,77,30.22,10.0,WNW,12.7,-,N/A,,Partly Cloudy,290,2014-02-07 09:53:00
5:53 AM,12.9,7.0,77,30.22,10.0,WNW,16.1,-,N/A,,Clear,290,2014-02-07 10:53:00
6:53 AM,12.9,7.0,77,30.23,10.0,WNW,13.8,-,N/A,,Scattered Clouds,290,2014-02-07 11:53:00
7:53 AM,12.9,7.0,77,30.26,10.0,WNW,15.0,23.0,N/A,,Clear,290,2014-02-07 12:53:00
8:53 AM,16.0,8.1,71,30.26,10.0,West,16.1,26.5,N/A,,Clear,280,2014-02-07 13:53:00
9:53 AM,18.0,7.0,62,30.28,10.0,West,13.8,28.8,N/A,,Clear,280,2014-02-07 14:53:00
10:53 AM,19.9,6.1,55,30.27,10.0,West,13.8,20.7,N/A,,Clear,270,2014-02-07 15:53:00
11:53 AM,21.0,3.0,46,30.25,10.0,West,9.2,20.7,N/A,,Clear,280,2014-02-07 16:53:00
12:53 PM,23.0,3.0,42,30.22,10.0,WNW,11.5,-,N/A,,Clear,300,2014-02-07 17:53:00
1:53 PM,24.1,6.1,46,30.19,10.0,West,9.2,-,N/A,,Clear,260,2014-02-07 18:53:00
2:53 PM,24.1,3.9,42,30.20,10.0,West,12.7,-,N/A,,Partly Cloudy,260,2014-02-07 19:53:00
3:53 PM,23.0,1.9,40,30.21,10.0,West,16.1,-,N/A,,Overcast,280,2014-02-07 20:53:00
4:53 PM,21.9,3.9,46,30.22,10.0,West,11.5,-,N/A,,Partly Cloudy,260,2014-02-07 21:53:00
5:53 PM,19.9,3.9,50,30.24,10.0,West,11.5,-,N/A,,Clear,270,2014-02-07 22:53:00
6:53 PM,19.9,5.0,52,30.25,10.0,West,11.5,-,N/A,,Clear,270,2014-02-07 23:53:00
7:53 PM,19.0,3.9,52,30.25,10.0,West,12.7,-,N/A,,Clear,270,2014-02-08 00:53:00
8:53 PM,18.0,3.0,52,30.25,10.0,WNW,13.8,24.2,N/A,,Clear,290,2014-02-08 01:53:00
9:53 PM,17.1,1.0,50,30.25,10.0,West,15.0,27.6,N/A,,Clear,280,2014-02-08 02:53:00
10:53 PM,16.0,-2.9,43,30.25,10.0,WNW,13.8,23.0,N/A,,Clear,300,2014-02-08 03:53:00
11:53 PM,14.0,-2.9,47,30.26,10.0,WNW,15.0,20.7,N/A,,Clear,290,2014-02-08 04:53:00